Location: Anuling
(14.1239°N, 120.8922°E)
Time: 06:20:15
(UTC+00:00)

SWIFT - Pass Details

Date: 14 January 2026
Orbit: 397 x 400 km, 20.6° (Epoch: 7 February)

Event Time Altitude Azimuth Distance (km) Brightness Sun altitude
Rises 11:14:35 0° 290° (WNW) 2,327 6.4 -20.9°
Reaches altitude 10° 11:16:44 10° 295° (WNW) 1,470 5.1 -21.4°
Enters shadow 11:19:04 37° 319° (NW) 654 2.8 -21.9°
